Airfield :
LOGIN :

Register | Disclaimer

   EN    FR    IT 

 










Legend :    VFR   Marginal VFR   IFR   Intensive IFR   Very Intensive IFR
Visi :
Ceiling :
>= 8 km
>= 3000ft
5 to 8 km
1000 to 3000 ft
1500m to 5 km
500 to 1000 ft
800 to 1500m
200 to 500 ft
< 800m
< 200 ft
Symbols :   Thunderstorms  Fog  Heavy snow  Heavy precipitations  Wind > 20 kt
SIGMETs :     Misc.  Thunderstorms  Icing  Turbulence  Mountain Waves  Volcanic Ashes







- Airport Elevation : 512 ft
- IATA code : URO
- Download approach charts


LFOP - Rouen Vallée de Seine

CURRENT METAR :
  • 121630Z AUTO 09009KT CAVOK 01/M00 Q1020 NOSIG

EXPIRED METARs :
  • 121600Z AUTO 10008KT CAVOK 02/M00 Q1020 NOSIG
  • 121530Z AUTO 10010KT CAVOK 03/M01 Q1020 NOSIG
  • 121500Z AUTO 10008KT CAVOK 03/M01 Q1021 NOSIG
  • 121430Z AUTO 10007KT CAVOK 04/M00 Q1021 NOSIG
  • 121400Z AUTO 11008KT CAVOK 04/00 Q1021 NOSIG

TAF TAF LFOP
Valid from the 12 at 12:00 until the 13 at 12:00 UTC


121100Z 1212/1312 11010KT 9999 SCT012
BECMG 1221/1224 OVC007
PROB30
TEMPO 1223/1306 OVC003
BECMG 1310/1312 BKN012
ATIS : +33 2 35 80 80 34
Met : +33 2 32 86 52 80
No reported NOTAMs for that airfield.



MET'MAP, your aeronautical weather chart ! - Copyright ORBIFLY December 2007 - Disclaimer

ORBIFLY MET'MAP TEAM :

Programming & Development : Alexandra Zaïnal
Concept & Development : Baudouin d'Aumeries
Co-Development & Prog : Marc-Olivier Méhu
Technical & hardware support : Manuel Goepfert

Contact : metmap@orbifly.com




SOURCES & CREDITS :

   NOAA